Weather History for Boone, IA

Change the Weather History Date:

Thursday, January 10, 2013

  Actual Average Record
Temperature  
Mean Temperature 32 °F -  
Max Temperature 37 °F 24 °F 55 °F (2012)
Min Temperature 27 °F 3 °F -24 °F (1982)
Degree Days  
Heating Degree Days 33    
Moisture  
Dew Point 28 °F    
Average Humidity 84    
Maximum Humidity 96    
Minimum Humidity 64    
Precipitation  
Precipitation 0.01 in - - ()
Sea Level Pressure  
Sea Level Pressure 30.05 in    
Wind  
Wind Speed 9 mph (SE)    
Max Wind Speed 17 mph    
Max Gust Speed 20 mph    
Visibility 6 miles    
Events Fog , Rain    
Averages and records for this station are not official NWS values.
T = Trace of Precipitation, MM = Missing Value Source: NWS Daily Summary

Daily Weather History Graph

Daily Weather History Graph

Search for Another Location

Airport:

Trip Planner

Search our weather history database for the weather conditions in past years. The results will help you decide how hot, cold, wet, or windy it might be!

Date:

Astronomy

Jan. 10, 2013 Rise Set
Actual Time 7:42 AM CST 5:03 PM CST
Civil Twilight 7:11 AM CST 5:34 PM CST
Nautical Twilight 6:36 AM CST 6:09 PM CST
Astronomical Twilight 6:03 AM CST 6:43 PM CST
Moon 6:23 AM CST (1/10) 4:12 PM CST (1/10)
Length of Visible Light 10h 23m
Length of Day
9h 20m
Waning Crescent, 2% of the Moon is Illuminated
Jan 10
Waning Crescent
Jan 11
New
Jan 18
First Quarter
Jan 26
Full
Feb 3
Last Quarter

Hourly Weather History & Observations

Time (CST) Temp. Windchill Dew Point Humidity Pressure Visibility Wind Dir Wind Speed Gust Speed Precip Events Conditions
12:15 AM 32.0 °F 24.2 °F 27.0 °F 82% 30.38 in 10.0 mi SSE 9.2 mph - N/A   Clear
12:35 AM 32.0 °F 24.8 °F 26.6 °F 80% 30.37 in 10.0 mi SSE 8.1 mph - N/A   Clear
12:55 AM 31.6 °F 27.0 °F 26.4 °F 81% 30.37 in 10.0 mi SE 4.6 mph - N/A   Clear
2:15 AM 29.3 °F 24.3 °F 25.2 °F 85% 30.35 in 10.0 mi SSE 4.6 mph - N/A   Clear
2:35 AM 29.5 °F 23.4 °F 25.2 °F 84% 30.36 in 10.0 mi SSE 5.8 mph - N/A   Clear
2:55 AM 28.8 °F 21.7 °F 24.8 °F 85% 30.36 in 10.0 mi SSE 6.9 mph - N/A   Clear
3:15 AM 29.1 °F 21.3 °F 24.6 °F 83% 30.35 in 10.0 mi SSE 8.1 mph - N/A   Clear
3:35 AM 28.9 °F 21.9 °F 24.3 °F 83% 30.34 in 10.0 mi SSE 6.9 mph - N/A   Clear
3:55 AM 29.5 °F 22.5 °F 24.4 °F 81% 30.33 in 10.0 mi SSE 6.9 mph - N/A   Clear
4:15 AM 29.3 °F 23.2 °F 24.4 °F 82% 30.32 in 10.0 mi SSE 5.8 mph - N/A   Clear
4:35 AM 29.3 °F 22.3 °F 24.1 °F 81% 30.31 in 10.0 mi SSE 6.9 mph - N/A   Clear
4:55 AM 29.1 °F 22.1 °F 23.9 °F 81% 30.30 in 10.0 mi SE 6.9 mph - N/A   Clear
5:15 AM 28.0 °F 21.7 °F 23.5 °F 83% 30.29 in 10.0 mi SE 5.8 mph - N/A   Clear
5:35 AM 27.7 °F 19.6 °F 23.9 °F 86% 30.29 in 10.0 mi SE 8.1 mph - N/A   Clear
5:55 AM 28.4 °F 20.4 °F 24.4 °F 85% 30.29 in 10.0 mi ESE 8.1 mph - N/A   Clear
6:15 AM 28.4 °F 22.2 °F 24.6 °F 86% 30.28 in 10.0 mi ESE 5.8 mph - N/A   Clear
6:35 AM 29.3 °F 20.8 °F 25.5 °F 86% 30.27 in 10.0 mi ESE 9.2 mph - N/A   Clear
6:55 AM 30.2 °F 21.9 °F 25.7 °F 83% 30.27 in 10.0 mi ESE 9.2 mph - N/A   Clear
7:15 AM 30.0 °F 21.7 °F 25.7 °F 84% 30.26 in 10.0 mi ESE 9.2 mph - N/A   Clear
7:55 AM 28.0 °F 20.0 °F 24.3 °F 86% 30.25 in 10.0 mi ESE 8.1 mph - N/A   Clear
8:35 AM 29.7 °F 21.3 °F 25.7 °F 85% 30.23 in 10.0 mi ESE 9.2 mph - N/A   Clear
8:55 AM 30.9 °F 22.8 °F 26.6 °F 84% 30.22 in 10.0 mi ESE 9.2 mph - N/A   Clear
9:15 AM 32.0 °F 23.6 °F 27.0 °F 82% 30.21 in 10.0 mi ESE 10.4 mph - N/A   Clear
9:35 AM 32.5 °F 24.2 °F 27.3 °F 81% 30.21 in 10.0 mi ESE 10.4 mph - N/A   Clear
9:55 AM 32.9 °F 23.2 °F 27.3 °F 80% 30.20 in 10.0 mi ESE 13.8 mph - N/A   Scattered Clouds
10:15 AM 33.6 °F 23.7 °F 27.5 °F 78% 30.18 in 10.0 mi ESE 15.0 mph - N/A   Overcast
10:35 AM 34.2 °F 24.8 °F 27.5 °F 77% 30.15 in 10.0 mi ESE 13.8 mph - N/A   Overcast
10:55 AM 35.1 °F 26.4 °F 27.7 °F 74% 30.14 in 10.0 mi ESE 12.7 mph - N/A   Overcast
11:15 AM 35.6 °F 26.2 °F 27.5 °F 72% 30.11 in 10.0 mi ESE 15.0 mph - N/A   Overcast
11:35 AM 36.1 °F 26.9 °F 27.5 °F 71% 30.09 in 10.0 mi ESE 15.0 mph - N/A   Scattered Clouds
11:55 AM 36.5 °F 27.4 °F 27.0 °F 68% 30.07 in 10.0 mi ESE 15.0 mph - N/A   Mostly Cloudy
12:15 PM 36.5 °F 26.7 °F 26.6 °F 67% 30.03 in 10.0 mi ESE 17.3 mph - N/A   Overcast
12:35 PM 37.0 °F 28.1 °F 26.1 °F 65% 30.01 in 10.0 mi East 15.0 mph - N/A   Overcast
12:55 PM 37.4 °F 28.9 °F 26.4 °F 65% 29.99 in 10.0 mi East 13.8 mph - N/A   Mostly Cloudy
1:15 PM 37.4 °F 28.2 °F 26.1 °F 64% 29.98 in 10.0 mi East 16.1 mph - N/A   Overcast
1:35 PM 37.0 °F 28.1 °F 26.4 °F 65% 29.97 in 10.0 mi East 15.0 mph - N/A   Overcast
1:55 PM 36.7 °F 28.0 °F 26.8 °F 67% 29.96 in 10.0 mi East 13.8 mph - N/A   Overcast
2:15 PM 36.7 °F 27.6 °F 27.3 °F 69% 29.95 in 10.0 mi ESE 15.0 mph - N/A   Overcast
2:35 PM 36.5 °F 27.0 °F 27.7 °F 70% 29.94 in 10.0 mi ESE 16.1 mph 19.6 mph N/A   Overcast
2:55 PM 36.0 °F 27.1 °F 28.6 °F 75% 29.93 in 10.0 mi ESE 13.8 mph - N/A   Light Drizzle
3:15 PM 35.6 °F 27.5 °F 29.1 °F 77% 29.93 in 10.0 mi ESE 11.5 mph - N/A   Overcast
3:35 PM 35.1 °F 25.9 °F 30.2 °F 82% 29.93 in 5.0 mi ESE 13.8 mph - N/A   Drizzle
3:55 PM 34.0 °F 26.0 °F 32.0 °F 92% 29.92 in 1.8 mi ESE 10.4 mph - N/A   Drizzle
4:15 PM 34.0 °F 26.0 °F 32.2 °F 93% 29.92 in 2.0 mi ESE 10.4 mph - N/A Rain Light Rain
4:35 PM 34.0 °F 25.5 °F 32.5 °F 94% 29.91 in 2.5 mi ESE 11.5 mph - N/A Rain Light Rain
4:55 PM 34.0 °F 26.0 °F 32.5 °F 94% 29.91 in 0.8 mi ESE 10.4 mph - N/A Rain Light Rain
5:15 PM 33.8 °F 25.3 °F 32.4 °F 94% 29.89 in 0.2 mi ESE 11.5 mph - N/A Fog Fog
5:35 PM 33.8 °F 24.8 °F 32.4 °F 94% 29.89 in 0.5 mi ESE 12.7 mph - N/A Fog Fog
5:55 PM 33.4 °F 24.8 °F 32.2 °F 95% 29.88 in 0.5 mi ESE 11.5 mph - N/A Fog Fog
6:15 PM 33.6 °F 24.1 °F 32.4 °F 95% 29.88 in 0.5 mi SE 13.8 mph - N/A Fog Fog
6:35 PM 33.4 °F 23.9 °F 32.2 °F 95% 29.86 in 0.2 mi ESE 13.8 mph - N/A Fog Fog
6:55 PM 33.3 °F 24.6 °F 32.0 °F 95% 29.85 in 0.2 mi SE 11.5 mph - N/A Fog Fog
7:15 PM 33.3 °F 24.6 °F 32.0 °F 95% 29.83 in 0.2 mi ESE 11.5 mph - N/A Rain Light Rain
7:35 PM 33.4 °F 25.4 °F 32.4 °F 96% 29.82 in 0.5 mi SE 10.4 mph - N/A   Light Drizzle
7:55 PM 33.3 °F 25.7 °F 32.2 °F 96% 29.81 in 0.2 mi ESE 9.2 mph - N/A Fog Fog
8:15 PM 33.4 °F 25.4 °F 32.4 °F 96% 29.79 in 0.2 mi ESE 10.4 mph - N/A Fog Fog
8:35 PM 33.3 °F 25.1 °F 32.2 °F 96% 29.77 in 0.2 mi ESE 10.4 mph - N/A Fog Fog
8:55 PM 33.4 °F 25.4 °F 32.4 °F 96% 29.77 in 0.2 mi SE 10.4 mph - N/A Fog Fog
9:15 PM 33.4 °F 26.6 °F 32.4 °F 96% 29.77 in 0.2 mi SE 8.1 mph - N/A Fog Fog
9:35 PM 33.6 °F 25.0 °F 32.4 °F 95% 29.77 in 0.2 mi SE 11.5 mph - N/A Fog Fog
9:55 PM 33.8 °F 25.3 °F 32.9 °F 96% 29.77 in 0.5 mi SE 11.5 mph - 0.01 in Rain Light Rain
10:15 PM 34.0 °F 27.2 °F 32.9 °F 96% 29.77 in 0.8 mi SSE 8.1 mph - N/A   Drizzle
10:35 PM 33.8 °F 29.6 °F 32.7 °F 96% 29.77 in 0.8 mi SE 4.6 mph - N/A   Drizzle
11:15 PM 33.4 °F 29.1 °F 32.4 °F 96% 29.74 in 0.5 mi ESE 4.6 mph - N/A Fog Fog
11:35 PM 33.8 °F 29.6 °F 32.5 °F 95% 29.74 in 0.8 mi SE 4.6 mph - N/A Rain Light Rain
11:55 PM 33.8 °F 29.6 °F 32.5 °F 95% 29.73 in 0.5 mi SE 4.6 mph - N/A Fog Fog